Wetterdaten: Dienstag, 28.01.2014
Datum Zeit Temperatur Luftfeuchte Luftdruck Regen Wind Richtung Richtung Taupunkt Windchill Windben
28.01.2014 00:00 -3,2 C 89 % 1003,0 hPa 0,0 l/m 0,0 km/h (0 Bft) S-SO 157 -4,7 C -3,1 C 0,0 km/h (0 Bft)
28.01.2014 00:05 -3,1 C 89 % 1003,1 hPa 0,0 l/m 0,0 km/h (0 Bft) S-SO 157 -4,6 C -3,2 C 0,0 km/h (0 Bft)
28.01.2014 00:10 -3,4 C 89 % 1003,1 hPa 0,0 l/m 0,0 km/h (0 Bft) S-SO 157 -4,9 C -3,2 C 0,0 km/h (0 Bft)
28.01.2014 00:15 -3,4 C 89 % 1003,1 hPa 0,0 l/m 0,0 km/h (0 Bft) S-SO 157 -4,9 C -3,2 C 0,0 km/h (0 Bft)
28.01.2014 00:20 -3,3 C 89 % 1003,1 hPa 0,0 l/m 0,0 km/h (0 Bft) S-SO 157 -4,8 C -3,1 C 0,0 km/h (0 Bft)
28.01.2014 00:25 -3,1 C 90 % 1003,2 hPa 0,0 l/m 0,0 km/h (0 Bft) S-SO 157 -4,5 C -3,1 C 0,0 km/h (0 Bft)
28.01.2014 00:30 -3,2 C 90 % 1003,2 hPa 0,0 l/m 0,0 km/h (0 Bft) S-SO 157 -4,6 C -3,1 C 0,0 km/h (0 Bft)
28.01.2014 00:35 -3,5 C 90 % 1003,2 hPa 0,0 l/m 0,0 km/h (0 Bft) S-SO 157 -4,9 C -3,1 C 0,0 km/h (0 Bft)
28.01.2014 00:40 -3,5 C 90 % 1003,2 hPa 0,0 l/m 0,2 km/h (0 Bft) S-SO 157 -4,9 C -3,2 C 2,6 km/h (1 Bft)
28.01.2014 00:45 -3,4 C 90 % 1003,0 hPa 0,0 l/m 0,5 km/h (0 Bft) S-SO 157 -4,8 C -3,1 C 0,0 km/h (0 Bft)
28.01.2014 00:50 -3,1 C 90 % 1003,0 hPa 0,0 l/m 0,5 km/h (0 Bft) S-SO 157 -4,5 C -3,1 C 0,0 km/h (0 Bft)
28.01.2014 00:55 -3,3 C 90 % 1003,0 hPa 0,0 l/m 0,0 km/h (0 Bft) S-SO 157 -4,7 C -3,1 C 0,0 km/h (0 Bft)
28.01.2014 01:00 -3,5 C 90 % 1003,0 hPa 0,0 l/m 0,0 km/h (0 Bft) S-SO 157 -4,9 C -3,2 C 0,0 km/h (0 Bft)
28.01.2014 01:05 -3,6 C 90 % 1002,9 hPa 0,0 l/m 0,0 km/h (0 Bft) S-SO 157 -5,0 C -3,2 C 0,0 km/h (0 Bft)
28.01.2014 01:10 -3,6 C 90 % 1002,9 hPa 0,0 l/m 0,0 km/h (0 Bft) S-SO 157 -5,0 C -3,3 C 0,0 km/h (0 Bft)
28.01.2014 01:15 -3,6 C 90 % 1002,9 hPa 0,0 l/m 0,0 km/h (0 Bft) S-SO 157 -5,0 C -3,4 C 0,0 km/h (0 Bft)
28.01.2014 01:20 -3,6 C 90 % 1002,9 hPa 0,0 l/m 0,0 km/h (0 Bft) S-SO 157 -5,0 C -3,5 C 0,0 km/h (0 Bft)
28.01.2014 01:25 -3,7 C 90 % 1002,9 hPa 0,0 l/m 0,0 km/h (0 Bft) S-SO 157 -5,1 C -3,5 C 0,0 km/h (0 Bft)
28.01.2014 01:30 -3,8 C 90 % 1002,9 hPa 0,0 l/m 0,0 km/h (0 Bft) S-SO 157 -5,2 C -3,5 C 0,0 km/h (0 Bft)
28.01.2014 01:35 -4,0 C 90 % 1002,9 hPa 0,0 l/m 0,0 km/h (0 Bft) S-SO 157 -5,4 C -3,6 C 0,0 km/h (0 Bft)
28.01.2014 01:40 -3,8 C 90 % 1002,9 hPa 0,0 l/m 0,0 km/h (0 Bft) S-SO 157 -5,2 C -3,6 C 0,0 km/h (0 Bft)
28.01.2014 01:45 -3,7 C 90 % 1002,8 hPa 0,0 l/m 0,0 km/h (0 Bft) S-SO 157 -5,1 C -3,6 C 0,0 km/h (0 Bft)
28.01.2014 01:50 -4,0 C 90 % 1002,8 hPa 0,0 l/m 0,0 km/h (0 Bft) S-SO 157 -5,4 C -3,7 C 0,0 km/h (0 Bft)
28.01.2014 01:55 -3,9 C 90 % 1002,8 hPa 0,0 l/m 0,0 km/h (0 Bft) S-SO 157 -5,3 C -3,8 C 0,0 km/h (0 Bft)
28.01.2014 02:00 -4,0 C 90 % 1002,8 hPa 0,0 l/m 0,0 km/h (0 Bft) S-SO 157 -5,4 C -3,9 C 0,0 km/h (0 Bft)
28.01.2014 02:05 -4,0 C 90 % 1002,3 hPa 0,0 l/m 0,0 km/h (0 Bft) S-SO 157 -5,4 C -3,8 C 0,0 km/h (0 Bft)
28.01.2014 02:10 -3,8 C 90 % 1002,3 hPa 0,0 l/m 0,0 km/h (0 Bft) S-SO 157 -5,2 C -3,8 C 0,0 km/h (0 Bft)
28.01.2014 02:15 -3,9 C 90 % 1002,3 hPa 0,0 l/m 0,0 km/h (0 Bft) S-SO 157 -5,3 C -3,8 C 0,0 km/h (0 Bft)
28.01.2014 02:20 -3,9 C 90 % 1002,3 hPa 0,0 l/m 0,0 km/h (0 Bft) S-SO 157 -5,3 C -3,7 C 1,9 km/h (1 Bft)
28.01.2014 02:25 -3,6 C 90 % 1002,7 hPa 0,0 l/m 0,2 km/h (0 Bft) S-SO 157 -5,0 C -3,6 C 3,1 km/h (1 Bft)
28.01.2014 02:30 -3,4 C 91 % 1002,7 hPa 0,0 l/m 0,2 km/h (0 Bft) S-SO 157 -4,7 C -3,5 C 0,0 km/h (0 Bft)
28.01.2014 02:35 -3,4 C 91 % 1002,7 hPa 0,0 l/m 0,2 km/h (0 Bft) S-SO 157 -4,7 C -3,5 C 0,0 km/h (0 Bft)
28.01.2014 02:40 -3,7 C 91 % 1002,7 hPa 0,0 l/m 0,0 km/h (0 Bft) S-SO 157 -4,9 C -3,5 C 0,0 km/h (0 Bft)
28.01.2014 02:45 -3,4 C 91 % 1002,8 hPa 0,0 l/m 0,0 km/h (0 Bft) S-SO 157 -4,7 C -3,5 C 0,0 km/h (0 Bft)
28.01.2014 02:50 -3,8 C 91 % 1002,8 hPa 0,0 l/m 0,0 km/h (0 Bft) S-SO 157 -5,0 C -3,5 C 0,0 km/h (0 Bft)
28.01.2014 02:55 -3,8 C 91 % 1002,8 hPa 0,0 l/m 0,0 km/h (0 Bft) S-SO 157 -5,0 C -3,5 C 0,0 km/h (0 Bft)
28.01.2014 03:00 -3,5 C 91 % 1002,8 hPa 0,0 l/m 0,0 km/h (0 Bft) S-SO 157 -4,8 C -3,6 C 0,0 km/h (0 Bft)
28.01.2014 03:05 -3,4 C 91 % 1002,9 hPa 0,0 l/m 0,2 km/h (0 Bft) S-SO 157 -4,7 C -3,6 C 0,0 km/h (0 Bft)
28.01.2014 03:10 -3,5 C 91 % 1002,9 hPa 0,0 l/m 0,3 km/h (0 Bft) S-SO 157 -4,8 C -3,5 C 0,0 km/h (0 Bft)
28.01.2014 03:15 -3,6 C 91 % 1002,9 hPa 0,0 l/m 0,2 km/h (0 Bft) S-SO 157 -4,8 C -3,5 C 0,0 km/h (0 Bft)
28.01.2014 03:20 -3,7 C 91 % 1002,9 hPa 0,0 l/m 0,0 km/h (0 Bft) S-SO 157 -4,9 C -3,6 C 0,0 km/h (0 Bft)
28.01.2014 03:25 -3,8 C 91 % 1002,6 hPa 0,0 l/m 0,0 km/h (0 Bft) S-SO 157 -5,0 C -3,7 C 0,0 km/h (0 Bft)
28.01.2014 03:30 -3,8 C 91 % 1002,6 hPa 0,0 l/m 0,0 km/h (0 Bft) S-SO 157 -5,0 C -3,9 C 0,0 km/h (0 Bft)
28.01.2014 03:35 -3,8 C 90 % 1002,6 hPa 0,0 l/m 0,0 km/h (0 Bft) S-SO 157 -5,2 C -4,0 C 0,0 km/h (0 Bft)
28.01.2014 03:40 -4,1 C 90 % 1002,6 hPa 0,0 l/m 0,0 km/h (0 Bft) S-SO 157 -5,5 C -4,0 C 0,0 km/h (0 Bft)
28.01.2014 03:45 -4,4 C 90 % 1002,7 hPa 0,0 l/m 0,0 km/h (0 Bft) S-SO 157 -5,8 C -4,0 C 0,0 km/h (0 Bft)
28.01.2014 03:50 -4,4 C 90 % 1002,7 hPa 0,0 l/m 0,0 km/h (0 Bft) S-SO 157 -5,8 C -4,2 C 0,0 km/h (0 Bft)
28.01.2014 03:55 -4,4 C 90 % 1002,7 hPa 0,0 l/m 0,0 km/h (0 Bft) S-SO 157 -5,8 C -4,2 C 0,0 km/h (0 Bft)
28.01.2014 04:00 -4,3 C 90 % 1002,7 hPa 0,0 l/m 0,0 km/h (0 Bft) S-SO 157 -5,7 C -4,2 C 0,0 km/h (0 Bft)
28.01.2014 04:05 -4,3 C 90 % 1002,6 hPa 0,0 l/m 0,0 km/h (0 Bft) S-SO 157 -5,7 C -4,0 C 0,0 km/h (0 Bft)
28.01.2014 04:10 -4,1 C 90 % 1002,6 hPa 0,0 l/m 0,0 km/h (0 Bft) S-SO 157 -5,5 C -3,9 C 0,0 km/h (0 Bft)
28.01.2014 04:15 -4,1 C 90 % 1002,6 hPa 0,0 l/m 0,0 km/h (0 Bft) S-SO 157 -5,5 C -3,8 C 0,0 km/h (0 Bft)
28.01.2014 04:20 -3,9 C 90 % 1002,6 hPa 0,0 l/m 0,0 km/h (0 Bft) S-SO 157 -5,3 C -3,8 C 0,0 km/h (0 Bft)
28.01.2014 04:25 -3,7 C 91 % 1002,6 hPa 0,0 l/m 0,0 km/h (0 Bft) S-SO 157 -4,9 C -3,7 C 2,7 km/h (1 Bft)
28.01.2014 04:30 -3,6 C 91 % 1002,6 hPa 0,0 l/m 0,2 km/h (0 Bft) S-SO 157 -4,8 C -3,5 C 0,0 km/h (0 Bft)
28.01.2014 04:35 -3,5 C 91 % 1002,6 hPa 0,0 l/m 0,2 km/h (0 Bft) S-SO 157 -4,8 C -3,5 C 0,0 km/h (0 Bft)
28.01.2014 04:40 -3,4 C 91 % 1002,6 hPa 0,0 l/m 0,0 km/h (0 Bft) S-SO 157 -4,7 C -3,3 C 0,0 km/h (0 Bft)
28.01.2014 04:45 -3,4 C 91 % 1002,7 hPa 0,0 l/m 0,0 km/h (0 Bft) S-SO 157 -4,7 C -3,3 C 0,0 km/h (0 Bft)
28.01.2014 04:50 -3,4 C 91 % 1002,7 hPa 0,0 l/m 0,0 km/h (0 Bft) S-SO 157 -4,7 C -3,2 C 0,0 km/h (0 Bft)
28.01.2014 04:55 -3,3 C 91 % 1002,7 hPa 0,0 l/m 0,0 km/h (0 Bft) S-SO 157 -4,6 C -3,2 C 0,0 km/h (0 Bft)
28.01.2014 05:00 -3,2 C 91 % 1002,7 hPa 0,0 l/m 0,0 km/h (0 Bft) S-SO 157 -4,5 C -3,1 C 0,0 km/h (0 Bft)
28.01.2014 05:05 -3,3 C 91 % 1002,9 hPa 0,0 l/m 0,0 km/h (0 Bft) S-SO 157 -4,6 C -3,1 C 0,0 km/h (0 Bft)
28.01.2014 05:10 -3,2 C 91 % 1002,9 hPa 0,0 l/m 0,0 km/h (0 Bft) S-SO 157 -4,5 C -3,0 C 0,0 km/h (0 Bft)
28.01.2014 05:15 -3,1 C 91 % 1002,9 hPa 0,0 l/m 0,0 km/h (0 Bft) S-SO 157 -4,4 C -3,0 C 0,0 km/h (0 Bft)
28.01.2014 05:20 -3,1 C 91 % 1002,9 hPa 0,0 l/m 0,0 km/h (0 Bft) S-SO 157 -4,4 C -2,9 C 0,0 km/h (0 Bft)
28.01.2014 05:25 -3,0 C 91 % 1003,0 hPa 0,0 l/m 0,0 km/h (0 Bft) S-SO 157 -4,3 C -2,9 C 0,0 km/h (0 Bft)
28.01.2014 05:30 -3,1 C 91 % 1003,0 hPa 0,0 l/m 0,0 km/h (0 Bft) S-SO 157 -4,4 C -3,0 C 0,0 km/h (0 Bft)
28.01.2014 05:35 -3,1 C 91 % 1003,0 hPa 0,0 l/m 0,0 km/h (0 Bft) S-SO 157 -4,4 C -3,0 C 0,0 km/h (0 Bft)
28.01.2014 05:40 -3,1 C 91 % 1003,0 hPa 0,0 l/m 0,2 km/h (0 Bft) S-SO 157 -4,4 C -3,0 C 0,0 km/h (0 Bft)
28.01.2014 05:45 -3,1 C 91 % 1003,1 hPa 0,0 l/m 0,2 km/h (0 Bft) S-SO 157 -4,4 C -3,0 C 0,0 km/h (0 Bft)
28.01.2014 05:50 -3,2 C 91 % 1003,1 hPa 0,0 l/m 0,0 km/h (0 Bft) S-SO 157 -4,5 C -3,1 C 0,0 km/h (0 Bft)
28.01.2014 05:55 -3,2 C 91 % 1003,1 hPa 0,0 l/m 0,0 km/h (0 Bft) S-SO 157 -4,5 C -3,1 C 0,0 km/h (0 Bft)
28.01.2014 06:00 -3,3 C 91 % 1003,1 hPa 0,0 l/m 0,0 km/h (0 Bft) S-SO 157 -4,6 C -3,1 C 0,0 km/h (0 Bft)
28.01.2014 06:05 -3,2 C 91 % 1002,9 hPa 0,0 l/m 0,0 km/h (0 Bft) S-SO 157 -4,5 C -3,2 C 0,0 km/h (0 Bft)
28.01.2014 06:10 -3,1 C 91 % 1002,9 hPa 0,0 l/m 1,0 km/h (0 Bft) S-SO 157 -4,4 C -3,2 C 5,3 km/h (1 Bft)
28.01.2014 06:15 -3,1 C 91 % 1002,9 hPa 0,0 l/m 1,8 km/h (1 Bft) S-SO 157 -4,4 C -3,2 C 3,9 km/h (1 Bft)
28.01.2014 06:20 -3,1 C 91 % 1002,9 hPa 0,0 l/m 2,1 km/h (1 Bft) S-SO 157 -4,4 C -3,2 C 5,5 km/h (1 Bft)
28.01.2014 06:25 -3,1 C 91 % 1002,9 hPa 0,0 l/m 1,9 km/h (1 Bft) S-SO 157 -4,4 C -3,1 C 2,3 km/h (1 Bft)
28.01.2014 06:30 -3,1 C 91 % 1002,9 hPa 0,0 l/m 1,4 km/h (1 Bft) S-SO 157 -4,4 C -3,2 C 2,4 km/h (1 Bft)
28.01.2014 06:35 -3,1 C 91 % 1002,9 hPa 0,0 l/m 1,0 km/h (0 Bft) S-SO 157 -4,4 C -3,2 C 3,9 km/h (1 Bft)
28.01.2014 06:40 -3,2 C 91 % 1002,9 hPa 0,0 l/m 1,3 km/h (1 Bft) S-SO 157 -4,5 C -3,2 C 0,0 km/h (0 Bft)
28.01.2014 06:45 -3,1 C 91 % 1002,9 hPa 0,0 l/m 1,8 km/h (1 Bft) S-SO 157 -4,4 C -3,3 C 2,1 km/h (1 Bft)
28.01.2014 06:50 -3,2 C 91 % 1002,9 hPa 0,0 l/m 1,0 km/h (0 Bft) S-SO 157 -4,5 C -3,3 C 0,0 km/h (0 Bft)
28.01.2014 06:55 -3,3 C 91 % 1002,9 hPa 0,0 l/m 0,5 km/h (0 Bft) S-SO 157 -4,6 C -3,3 C 2,1 km/h (1 Bft)
28.01.2014 07:00 -3,4 C 91 % 1002,9 hPa 0,0 l/m 0,5 km/h (0 Bft) S-SO 157 -4,7 C -3,3 C 0,0 km/h (0 Bft)
28.01.2014 07:05 -3,4 C 91 % 1003,1 hPa 0,0 l/m 0,5 km/h (0 Bft) S-SO 157 -4,7 C -3,4 C 0,0 km/h (0 Bft)
28.01.2014 07:10 -3,5 C 91 % 1003,1 hPa 0,0 l/m 0,3 km/h (0 Bft) S-SO 157 -4,8 C -3,5 C 1,8 km/h (1 Bft)
28.01.2014 07:15 -3,4 C 91 % 1003,1 hPa 0,0 l/m 0,3 km/h (0 Bft) S-SO 157 -4,7 C -3,5 C 0,0 km/h (0 Bft)
28.01.2014 07:20 -3,7 C 91 % 1003,1 hPa 0,0 l/m 0,2 km/h (0 Bft) S-SO 157 -4,9 C -3,6 C 0,0 km/h (0 Bft)
28.01.2014 07:25 -3,8 C 91 % 1003,1 hPa 0,0 l/m 0,0 km/h (0 Bft) S-SO 157 -5,0 C -3,8 C 0,0 km/h (0 Bft)
28.01.2014 07:30 -4,2 C 90 % 1003,1 hPa 0,0 l/m 0,0 km/h (0 Bft) S-SO 157 -5,6 C -4,0 C 0,0 km/h (0 Bft)
28.01.2014 07:35 -4,0 C 90 % 1003,1 hPa 0,0 l/m 0,0 km/h (0 Bft) S-SO 157 -5,4 C -4,2 C 0,0 km/h (0 Bft)
28.01.2014 07:40 -4,0 C 90 % 1003,1 hPa 0,0 l/m 0,0 km/h (0 Bft) S-SO 157 -5,4 C -4,3 C 0,0 km/h (0 Bft)
28.01.2014 07:45 -4,3 C 90 % 1003,0 hPa 0,0 l/m 0,0 km/h (0 Bft) S-SO 157 -5,7 C -4,4 C 0,0 km/h (0 Bft)
28.01.2014 07:50 -4,0 C 90 % 1003,0 hPa 0,0 l/m 0,5 km/h (0 Bft) S-SO 157 -5,4 C -4,4 C 1,9 km/h (1 Bft)
28.01.2014 07:55 -3,7 C 91 % 1003,0 hPa 0,0 l/m 0,5 km/h (0 Bft) S-SO 157 -4,9 C -4,1 C 0,0 km/h (0 Bft)
28.01.2014 08:00 -3,7 C 91 % 1003,0 hPa 0,0 l/m 0,5 km/h (0 Bft) S-SO 157 -4,9 C -3,7 C 0,0 km/h (0 Bft)
28.01.2014 08:05 -3,7 C 91 % 1003,1 hPa 0,0 l/m 0,5 km/h (0 Bft) S-SO 157 -4,9 C -3,6 C 1,6 km/h (1 Bft)
28.01.2014 08:10 -3,6 C 91 % 1003,1 hPa 0,0 l/m 0,3 km/h (0 Bft) S-SO 157 -4,8 C -3,5 C 0,0 km/h (0 Bft)
28.01.2014 08:15 -3,5 C 91 % 1003,1 hPa 0,0 l/m 0,3 km/h (0 Bft) S-SO 157 -4,8 C -3,4 C 0,0 km/h (0 Bft)
28.01.2014 08:20 -3,5 C 91 % 1003,1 hPa 0,0 l/m 0,3 km/h (0 Bft) S-SO 157 -4,8 C -3,4 C 3,1 km/h (1 Bft)
28.01.2014 08:25 -3,3 C 91 % 1003,2 hPa 0,0 l/m 0,6 km/h (0 Bft) S-SO 157 -4,6 C -3,3 C 0,0 km/h (0 Bft)
28.01.2014 08:30 -2,9 C 91 % 1003,2 hPa 0,0 l/m 0,6 km/h (0 Bft) S-SO 157 -4,2 C -3,0 C 0,0 km/h (0 Bft)
28.01.2014 08:35 -2,8 C 91 % 1003,2 hPa 0,0 l/m 0,0 km/h (0 Bft) S-SO 157 -4,1 C -2,8 C 0,0 km/h (0 Bft)
28.01.2014 08:40 -2,8 C 91 % 1003,2 hPa 0,0 l/m 0,0 km/h (0 Bft) S-SO 157 -4,1 C -2,7 C 0,0 km/h (0 Bft)
28.01.2014 08:45 -2,7 C 91 % 1003,3 hPa 0,0 l/m 0,0 km/h (0 Bft) S-SO 157 -4,0 C -2,6 C 0,0 km/h (0 Bft)
28.01.2014 08:50 -2,6 C 91 % 1003,3 hPa 0,0 l/m 0,0 km/h (0 Bft) S-SO 157 -3,9 C -2,5 C 0,0 km/h (0 Bft)
28.01.2014 08:55 -2,5 C 91 % 1003,3 hPa 0,0 l/m 0,0 km/h (0 Bft) S-SO 157 -3,8 C -2,4 C 0,0 km/h (0 Bft)
28.01.2014 09:00 -2,3 C 91 % 1003,3 hPa 0,0 l/m 0,0 km/h (0 Bft) S-SO 157 -3,6 C -2,2 C 0,0 km/h (0 Bft)
28.01.2014 09:05 -2,1 C 91 % 1003,4 hPa 0,0 l/m 0,0 km/h (0 Bft) S-SO 157 -3,4 C -2,1 C 0,0 km/h (0 Bft)
28.01.2014 09:10 -2,0 C 91 % 1003,4 hPa 0,0 l/m 0,0 km/h (0 Bft) S-SO 157 -3,3 C -1,9 C 0,0 km/h (0 Bft)
28.01.2014 09:15 -2,2 C 91 % 1003,4 hPa 0,0 l/m 0,2 km/h (0 Bft) S-SO 157 -3,5 C -1,9 C 1,6 km/h (1 Bft)
28.01.2014 09:20 -2,1 C 91 % 1003,4 hPa 0,0 l/m 0,2 km/h (0 Bft) S-SO 157 -3,4 C -2,0 C 0,0 km/h (0 Bft)
28.01.2014 09:25 -2,0 C 91 % 1003,6 hPa 0,0 l/m 0,0 km/h (0 Bft) S-SO 157 -3,3 C -2,0 C 0,0 km/h (0 Bft)
28.01.2014 09:30 -2,0 C 91 % 1003,6 hPa 0,0 l/m 0,0 km/h (0 Bft) S-SO 157 -3,3 C -2,0 C 0,0 km/h (0 Bft)
28.01.2014 09:35 -2,0 C 91 % 1003,6 hPa 0,0 l/m 0,0 km/h (0 Bft) S-SO 157 -3,3 C -2,0 C 0,0 km/h (0 Bft)
28.01.2014 09:40 -1,6 C 91 % 1003,6 hPa 0,0 l/m 0,0 km/h (0 Bft) S-SO 157 -2,9 C -1,8 C 0,0 km/h (0 Bft)
28.01.2014 09:45 -1,5 C 91 % 1003,6 hPa 0,0 l/m 0,0 km/h (0 Bft) S-SO 157 -2,8 C -1,7 C 0,0 km/h (0 Bft)
28.01.2014 09:50 -1,4 C 91 % 1003,6 hPa 0,0 l/m 0,0 km/h (0 Bft) S-SO 157 -2,7 C -1,6 C 0,0 km/h (0 Bft)
28.01.2014 09:55 -1,5 C 90 % 1003,6 hPa 0,0 l/m 0,0 km/h (0 Bft) S-SO 157 -2,9 C -1,6 C 0,0 km/h (0 Bft)
28.01.2014 10:00 -1,1 C 90 % 1003,6 hPa 0,0 l/m 0,0 km/h (0 Bft) S-SO 157 -2,5 C -1,5 C 0,0 km/h (0 Bft)
28.01.2014 10:05 -0,8 C 90 % 1003,6 hPa 0,0 l/m 0,0 km/h (0 Bft) S-SO 157 -2,2 C -1,3 C 0,0 km/h (0 Bft)
28.01.2014 10:10 -0,4 C 90 % 1003,6 hPa 0,0 l/m 0,0 km/h (0 Bft) S-SO 157 -1,8 C -1,1 C 0,0 km/h (0 Bft)
28.01.2014 10:15 -0,3 C 90 % 1003,6 hPa 0,0 l/m 0,0 km/h (0 Bft) S-SO 157 -1,7 C -0,9 C 0,0 km/h (0 Bft)
28.01.2014 10:20 -0,1 C 89 % 1003,6 hPa 0,0 l/m 0,0 km/h (0 Bft) S-SO 157 -1,7 C -0,8 C 0,0 km/h (0 Bft)
28.01.2014 10:25 0,0 C 89 % 1003,6 hPa 0,0 l/m 0,0 km/h (0 Bft) S-SO 157 -1,6 C -0,6 C 0,0 km/h (0 Bft)
28.01.2014 10:30 -0,1 C 89 % 1003,6 hPa 0,0 l/m 0,0 km/h (0 Bft) S-SO 157 -1,7 C -0,6 C 0,0 km/h (0 Bft)
28.01.2014 10:35 -0,3 C 88 % 1003,6 hPa 0,0 l/m 0,0 km/h (0 Bft) S-SO 157 -2,0 C -0,6 C 0,0 km/h (0 Bft)
28.01.2014 10:40 -0,6 C 87 % 1003,6 hPa 0,0 l/m 0,0 km/h (0 Bft) S-SO 157 -2,5 C -0,8 C 0,0 km/h (0 Bft)
28.01.2014 10:45 -0,7 C 87 % 1003,6 hPa 0,0 l/m 0,0 km/h (0 Bft) S-SO 157 -2,6 C -0,9 C 0,0 km/h (0 Bft)
28.01.2014 10:50 -0,8 C 87 % 1003,6 hPa 0,0 l/m 0,0 km/h (0 Bft) S-SO 157 -2,7 C -0,9 C 0,0 km/h (0 Bft)
28.01.2014 10:55 -0,8 C 86 % 1003,6 hPa 0,0 l/m 0,0 km/h (0 Bft) S-SO 157 -2,8 C -1,0 C 0,0 km/h (0 Bft)
28.01.2014 11:00 -0,9 C 86 % 1003,6 hPa 0,0 l/m 0,0 km/h (0 Bft) S-SO 157 -2,9 C -0,7 C 0,0 km/h (0 Bft)
28.01.2014 11:05 -1,0 C 85 % 1003,6 hPa 0,0 l/m 0,0 km/h (0 Bft) S-SO 157 -3,2 C 0,4 C 0,0 km/h (0 Bft)
28.01.2014 11:10 -1,0 C 85 % 1003,6 hPa 0,0 l/m 0,0 km/h (0 Bft) S-SO 157 -3,2 C 2,6 C 0,0 km/h (0 Bft)
28.01.2014 11:15 -1,0 C 85 % 1003,6 hPa 0,0 l/m 0,0 km/h (0 Bft) S-SO 157 -3,2 C 3,7 C 0,0 km/h (0 Bft)
28.01.2014 11:20 -1,0 C 85 % 1003,6 hPa 0,0 l/m 0,0 km/h (0 Bft) S-SO 157 -3,2 C 5,1 C 0,0 km/h (0 Bft)
28.01.2014 11:25 -1,0 C 85 % 1003,6 hPa 0,0 l/m 0,0 km/h (0 Bft) SO 135 -3,2 C 5,9 C 0,0 km/h (0 Bft)
28.01.2014 11:30 -0,7 C 85 % 1003,6 hPa 0,0 l/m 0,0 km/h (0 Bft) SO 135 -2,9 C 6,8 C 0,0 km/h (0 Bft)
28.01.2014 11:35 -0,6 C 85 % 1003,6 hPa 0,0 l/m 0,0 km/h (0 Bft) O-SO 112 -2,8 C 7,7 C 0,0 km/h (0 Bft)
28.01.2014 11:40 -0,3 C 85 % 1003,6 hPa 0,0 l/m 0,0 km/h (0 Bft) S 180 -2,5 C 9,3 C 0,0 km/h (0 Bft)
28.01.2014 11:45 -0,1 C 85 % 1003,5 hPa 0,0 l/m 0,2 km/h (0 Bft) W 270 -2,3 C 9,8 C 3,2 km/h (1 Bft)
28.01.2014 11:50 0,1 C 84 % 1003,5 hPa 0,0 l/m 1,3 km/h (1 Bft) N 360 -2,3 C 9,6 C 3,9 km/h (1 Bft)
28.01.2014 11:55 0,3 C 84 % 1003,5 hPa 0,0 l/m 1,3 km/h (1 Bft) N-NW 337 -2,1 C 9,6 C 0,0 km/h (0 Bft)
28.01.2014 12:00 0,4 C 82 % 1003,5 hPa 0,0 l/m 1,1 km/h (1 Bft) NO 45 -2,3 C 9,8 C 2,3 km/h (1 Bft)
28.01.2014 12:05 0,6 C 82 % 1003,4 hPa 0,0 l/m 0,5 km/h (0 Bft) O-NO 67 -2,1 C 10,0 C 0,0 km/h (0 Bft)
28.01.2014 12:10 0,8 C 81 % 1003,4 hPa 0,0 l/m 1,4 km/h (1 Bft) W-NW 292 -2,1 C 10,0 C 5,6 km/h (1 Bft)
28.01.2014 12:15 1,3 C 80 % 1003,4 hPa 0,0 l/m 1,6 km/h (1 Bft) S 180 -1,8 C 10,4 C 0,0 km/h (0 Bft)
28.01.2014 12:20 1,9 C 78 % 1003,4 hPa 0,0 l/m 1,9 km/h (1 Bft) S 180 -1,5 C 10,6 C 7,1 km/h (2 Bft)
28.01.2014 12:25 2,5 C 77 % 1003,4 hPa 0,0 l/m 2,7 km/h (1 Bft) S-SO 157 -1,1 C 10,1 C 2,9 km/h (1 Bft)
28.01.2014 12:30 2,7 C 75 % 1003,4 hPa 0,0 l/m 1,9 km/h (1 Bft) NO 45 -1,3 C 10,3 C 0,0 km/h (0 Bft)
28.01.2014 12:35 2,1 C 68 % 1003,4 hPa 0,0 l/m 2,7 km/h (1 Bft) N-NW 337 -3,2 C 10,7 C 7,1 km/h (2 Bft)
28.01.2014 12:38 1,5 C 66 % 1003,4 hPa 0,0 l/m 4,7 km/h (1 Bft) N-NW 337 -4,1 C 8,6 C 7,4 km/h (2 Bft)
28.01.2014 12:40 1,5 C 66 % 1003,4 hPa 0,0 l/m 4,7 km/h (1 Bft) N-NW 337 -4,1 C 8,6 C 5,0 km/h (1 Bft)
28.01.2014 12:45 1,3 C 65 % 1003,2 hPa 0,0 l/m 5,0 km/h (1 Bft) N-NW 337 -4,5 C 7,6 C 5,0 km/h (1 Bft)
28.01.2014 12:50 1,0 C 68 % 1003,2 hPa 0,0 l/m 4,3 km/h (1 Bft) N-NW 337 -4,2 C 7,3 C 7,6 km/h (2 Bft)
28.01.2014 12:55 1,0 C 67 % 1003,2 hPa 0,0 l/m 3,9 km/h (1 Bft) N 360 -4,4 C 7,5 C 2,3 km/h (1 Bft)
28.01.2014 13:00 0,9 C 69 % 1003,2 hPa 0,0 l/m 2,4 km/h (1 Bft) N-NW 337 -4,1 C 7,9 C 3,5 km/h (1 Bft)
28.01.2014 13:05 0,9 C 69 % 1003,0 hPa 0,0 l/m 1,9 km/h (1 Bft) N 360 -4,1 C 7,9 C 6,4 km/h (2 Bft)
28.01.2014 13:10 1,0 C 69 % 1003,0 hPa 0,0 l/m 3,9 km/h (1 Bft) N-NW 337 -4,0 C 7,1 C 6,4 km/h (2 Bft)
28.01.2014 13:15 0,9 C 69 % 1003,0 hPa 0,0 l/m 4,8 km/h (1 Bft) N 360 -4,1 C 6,3 C 2,3 km/h (1 Bft)
28.01.2014 13:20 1,2 C 66 % 1003,0 hPa 0,0 l/m 4,2 km/h (1 Bft) N-NW 337 -4,4 C 5,8 C 6,9 km/h (2 Bft)
28.01.2014 13:25 1,1 C 65 % 1002,8 hPa 0,0 l/m 3,7 km/h (1 Bft) N-NW 337 -4,7 C 5,7 C 6,0 km/h (2 Bft)
28.01.2014 13:30 0,9 C 67 % 1002,8 hPa 0,0 l/m 4,8 km/h (1 Bft) N-NW 337 -4,5 C 5,5 C 6,3 km/h (2 Bft)
28.01.2014 13:35 0,9 C 67 % 1002,8 hPa 0,0 l/m 4,5 km/h (1 Bft) N-NW 337 -4,5 C 5,8 C 6,6 km/h (2 Bft)
28.01.2014 13:40 1,5 C 67 % 1002,8 hPa 0,0 l/m 3,7 km/h (1 Bft) N-NW 337 -3,9 C 6,9 C 4,0 km/h (1 Bft)
28.01.2014 13:45 1,5 C 65 % 1003,1 hPa 0,0 l/m 4,0 km/h (1 Bft) N-NW 337 -4,3 C 6,7 C 6,9 km/h (2 Bft)
28.01.2014 13:50 1,5 C 63 % 1003,1 hPa 0,0 l/m 5,6 km/h (1 Bft) N-NW 337 -4,8 C 5,7 C 9,8 km/h (2 Bft)
28.01.2014 13:55 1,6 C 64 % 1003,1 hPa 0,0 l/m 5,8 km/h (2 Bft) N-NO 22 -4,5 C 5,6 C 4,2 km/h (1 Bft)
28.01.2014 14:00 1,4 C 63 % 1003,1 hPa 0,0 l/m 5,1 km/h (1 Bft) N-NW 337 -4,9 C 5,4 C 7,6 km/h (2 Bft)
28.01.2014 14:05 1,3 C 63 % 1002,9 hPa 0,0 l/m 5,3 km/h (1 Bft) N-NW 337 -5,0 C 4,3 C 6,6 km/h (2 Bft)
28.01.2014 14:10 1,5 C 62 % 1002,9 hPa 0,0 l/m 5,3 km/h (1 Bft) N 360 -5,0 C 3,3 C 4,7 km/h (1 Bft)
28.01.2014 14:15 1,5 C 63 % 1002,9 hPa 0,0 l/m 4,8 km/h (1 Bft) N-NW 337 -4,8 C 3,0 C 5,5 km/h (1 Bft)
28.01.2014 14:20 1,2 C 63 % 1002,9 hPa 0,0 l/m 4,8 km/h (1 Bft) N 360 -5,0 C 2,3 C 5,0 km/h (1 Bft)
28.01.2014 14:25 1,6 C 62 % 1002,6 hPa 0,0 l/m 4,2 km/h (1 Bft) N-NW 337 -4,9 C 2,6 C 3,7 km/h (1 Bft)
28.01.2014 14:30 1,1 C 62 % 1002,6 hPa 0,0 l/m 3,5 km/h (1 Bft) N-NW 337 -5,3 C 2,5 C 2,3 km/h (1 Bft)
28.01.2014 14:35 0,9 C 64 % 1002,6 hPa 0,0 l/m 3,4 km/h (1 Bft) N-NO 22 -5,1 C 2,2 C 0,0 km/h (0 Bft)
28.01.2014 14:40 0,8 C 65 % 1002,6 hPa 0,0 l/m 2,4 km/h (1 Bft) N-NW 337 -5,0 C 2,1 C 3,4 km/h (1 Bft)
28.01.2014 14:45 0,7 C 66 % 1002,4 hPa 0,0 l/m 1,9 km/h (1 Bft) NO 45 -4,9 C 1,8 C 5,8 km/h (2 Bft)
28.01.2014 14:50 0,6 C 67 % 1002,4 hPa 0,0 l/m 1,1 km/h (1 Bft) N-NO 22 -4,8 C 1,6 C 0,0 km/h (0 Bft)
28.01.2014 14:55 0,4 C 68 % 1002,4 hPa 0,0 l/m 0,3 km/h (0 Bft) O-NO 67 -4,8 C 1,3 C 0,0 km/h (0 Bft)
28.01.2014 15:00 0,2 C 69 % 1002,4 hPa 0,0 l/m 0,6 km/h (0 Bft) NO 45 -4,8 C 1,0 C 2,9 km/h (1 Bft)
28.01.2014 15:05 0,0 C 69 % 1002,0 hPa 0,0 l/m 1,1 km/h (1 Bft) NO 45 -5,0 C 0,8 C 0,0 km/h (0 Bft)
28.01.2014 15:10 -0,3 C 70 % 1002,0 hPa 0,0 l/m 2,1 km/h (1 Bft) N-NO 22 -5,1 C 0,4 C 4,2 km/h (1 Bft)
28.01.2014 15:15 -0,4 C 70 % 1002,0 hPa 0,0 l/m 2,1 km/h (1 Bft) O-NO 67 -5,2 C 0,3 C 4,2 km/h (1 Bft)
28.01.2014 15:20 -0,4 C 69 % 1002,0 hPa 0,0 l/m 2,4 km/h (1 Bft) N 360 -5,4 C 0,2 C 5,0 km/h (1 Bft)
28.01.2014 15:25 -0,5 C 70 % 1002,0 hPa 0,0 l/m 2,1 km/h (1 Bft) NO 45 -5,3 C 0,1 C 3,4 km/h (1 Bft)
28.01.2014 15:30 -0,6 C 70 % 1002,0 hPa 0,0 l/m 1,3 km/h (1 Bft) O-NO 67 -5,4 C 0,0 C 0,0 km/h (0 Bft)
28.01.2014 15:35 -0,8 C 70 % 1002,0 hPa 0,0 l/m 0,6 km/h (0 Bft) O-NO 67 -5,6 C -0,1 C 0,0 km/h (0 Bft)
28.01.2014 15:40 -0,9 C 71 % 1002,0 hPa 0,0 l/m 0,0 km/h (0 Bft) O 90 -5,5 C -0,4 C 0,0 km/h (0 Bft)
28.01.2014 15:45 -1,0 C 72 % 1002,1 hPa 0,0 l/m 0,0 km/h (0 Bft) O 90 -5,4 C -0,6 C 0,0 km/h (0 Bft)
28.01.2014 15:50 -1,2 C 73 % 1002,1 hPa 0,0 l/m 0,6 km/h (0 Bft) O 90 -5,4 C -0,8 C 2,9 km/h (1 Bft)
28.01.2014 15:55 -1,3 C 73 % 1002,1 hPa 0,0 l/m 1,4 km/h (1 Bft) O 90 -5,5 C -1,0 C 3,1 km/h (1 Bft)
28.01.2014 16:00 -1,4 C 74 % 1002,1 hPa 0,0 l/m 2,1 km/h (1 Bft) O-NO 67 -5,4 C -1,2 C 2,1 km/h (1 Bft)
28.01.2014 16:05 -1,6 C 74 % 1001,6 hPa 0,0 l/m 1,9 km/h (1 Bft) O-NO 67 -5,6 C -1,4 C 0,0 km/h (0 Bft)
28.01.2014 16:10 -1,7 C 75 % 1001,6 hPa 0,0 l/m 1,1 km/h (1 Bft) O 90 -5,5 C -1,7 C 1,9 km/h (1 Bft)
28.01.2014 16:15 -1,8 C 75 % 1001,6 hPa 0,0 l/m 0,6 km/h (0 Bft) NO 45 -5,6 C -1,9 C 0,0 km/h (0 Bft)
28.01.2014 16:20 -1,9 C 76 % 1001,6 hPa 0,0 l/m 0,5 km/h (0 Bft) NO 45 -5,6 C -2,0 C 0,0 km/h (0 Bft)
28.01.2014 16:25 -2,1 C 76 % 1001,8 hPa 0,0 l/m 0,2 km/h (0 Bft) O 90 -5,7 C -2,2 C 0,0 km/h (0 Bft)
28.01.2014 16:30 -2,2 C 77 % 1001,8 hPa 0,0 l/m 0,2 km/h (0 Bft) O-NO 67 -5,7 C -2,5 C 0,0 km/h (0 Bft)
28.01.2014 16:35 -2,3 C 77 % 1001,8 hPa 0,0 l/m 0,0 km/h (0 Bft) NO 45 -5,8 C -2,6 C 0,0 km/h (0 Bft)
28.01.2014 16:40 -2,4 C 77 % 1001,8 hPa 0,0 l/m 0,5 km/h (0 Bft) NO 45 -5,9 C -2,8 C 0,0 km/h (0 Bft)
28.01.2014 16:45 -2,5 C 78 % 1001,5 hPa 0,0 l/m 0,5 km/h (0 Bft) NO 45 -5,8 C -2,9 C 0,0 km/h (0 Bft)
28.01.2014 16:50 -3,3 C 77 % 1001,5 hPa 0,0 l/m 0,0 km/h (0 Bft) NO 45 -6,7 C -3,2 C 0,0 km/h (0 Bft)
28.01.2014 16:55 -3,8 C 77 % 1001,5 hPa 0,0 l/m 0,0 km/h (0 Bft) O-NO 67 -7,2 C -3,6 C 0,0 km/h (0 Bft)
28.01.2014 17:00 -4,3 C 77 % 1001,5 hPa 0,0 l/m 0,0 km/h (0 Bft) NO 45 -7,7 C -4,1 C 0,0 km/h (0 Bft)
28.01.2014 17:05 -4,5 C 77 % 1001,3 hPa 0,0 l/m 0,0 km/h (0 Bft) NO 45 -7,9 C -4,4 C 0,0 km/h (0 Bft)
28.01.2014 17:10 -4,0 C 79 % 1001,3 hPa 0,0 l/m 0,0 km/h (0 Bft) O 90 -7,1 C -4,6 C 0,0 km/h (0 Bft)
28.01.2014 17:15 -3,8 C 79 % 1001,3 hPa 0,0 l/m 0,0 km/h (0 Bft) O 90 -6,9 C -4,6 C 0,0 km/h (0 Bft)
28.01.2014 17:20 -4,3 C 79 % 1001,3 hPa 0,0 l/m 0,0 km/h (0 Bft) NO 45 -7,4 C -4,8 C 0,0 km/h (0 Bft)
28.01.2014 17:25 -4,8 C 79 % 1001,2 hPa 0,0 l/m 0,0 km/h (0 Bft) NO 45 -7,9 C -4,8 C 0,0 km/h (0 Bft)
28.01.2014 17:30 -5,2 C 79 % 1001,2 hPa 0,0 l/m 0,0 km/h (0 Bft) NO 45 -8,3 C -4,9 C 0,0 km/h (0 Bft)
28.01.2014 17:35 -5,2 C 80 % 1001,2 hPa 0,0 l/m 0,0 km/h (0 Bft) NO 45 -8,1 C -5,1 C 0,0 km/h (0 Bft)
28.01.2014 17:40 -4,4 C 81 % 1001,2 hPa 0,0 l/m 0,0 km/h (0 Bft) NO 45 -7,2 C -5,1 C 0,0 km/h (0 Bft)
28.01.2014 17:45 -4,8 C 81 % 1001,0 hPa 0,0 l/m 0,0 km/h (0 Bft) NO 45 -7,5 C -5,2 C 0,0 km/h (0 Bft)
28.01.2014 17:50 -5,4 C 81 % 1001,0 hPa 0,0 l/m 0,0 km/h (0 Bft) NO 45 -8,1 C -5,4 C 0,0 km/h (0 Bft)
28.01.2014 17:55 -5,6 C 81 % 1001,0 hPa 0,0 l/m 0,0 km/h (0 Bft) NO 45 -8,3 C -5,5 C 0,0 km/h (0 Bft)
28.01.2014 18:00 -5,2 C 82 % 1001,0 hPa 0,0 l/m 0,0 km/h (0 Bft) NO 45 -7,8 C -5,4 C 0,0 km/h (0 Bft)
28.01.2014 18:05 -5,6 C 82 % 1000,8 hPa 0,0 l/m 0,0 km/h (0 Bft) NO 45 -8,2 C -5,5 C 0,0 km/h (0 Bft)
28.01.2014 18:10 -6,0 C 82 % 1000,8 hPa 0,0 l/m 0,0 km/h (0 Bft) O 90 -8,6 C -5,6 C 0,0 km/h (0 Bft)
28.01.2014 18:15 -6,1 C 82 % 1000,8 hPa 0,0 l/m 0,0 km/h (0 Bft) O 90 -8,7 C -5,8 C 0,0 km/h (0 Bft)
28.01.2014 18:20 -6,5 C 82 % 1000,8 hPa 0,0 l/m 0,0 km/h (0 Bft) O 90 -9,0 C -6,0 C 0,0 km/h (0 Bft)
28.01.2014 18:25 -6,5 C 82 % 1000,8 hPa 0,0 l/m 0,0 km/h (0 Bft) O 90 -9,0 C -6,0 C 0,0 km/h (0 Bft)
28.01.2014 18:30 -6,1 C 83 % 1000,8 hPa 0,0 l/m 0,0 km/h (0 Bft) O 90 -8,5 C -6,2 C 0,0 km/h (0 Bft)
28.01.2014 18:35 -5,8 C 83 % 1000,8 hPa 0,0 l/m 0,0 km/h (0 Bft) O 90 -8,2 C -6,1 C 0,0 km/h (0 Bft)
28.01.2014 18:38 -6,2 C 83 % 1000,8 hPa 0,0 l/m 0,0 km/h (0 Bft) NO 45 -8,6 C -6,0 C 0,0 km/h (0 Bft)
28.01.2014 18:40 -6,2 C 83 % 1000,8 hPa 0,0 l/m 0,0 km/h (0 Bft) NO 45 -8,6 C -6,0 C 0,0 km/h (0 Bft)
28.01.2014 18:45 -6,4 C 83 % 1000,6 hPa 0,0 l/m 0,0 km/h (0 Bft) N-NO 22 -8,8 C -5,9 C 0,0 km/h (0 Bft)
28.01.2014 18:50 -6,6 C 83 % 1000,6 hPa 0,0 l/m 0,0 km/h (0 Bft) N-NO 22 -9,0 C -6,0 C 0,0 km/h (0 Bft)
28.01.2014 18:55 -6,5 C 83 % 1000,6 hPa 0,0 l/m 0,0 km/h (0 Bft) N-NO 22 -8,9 C -6,0 C 0,0 km/h (0 Bft)
28.01.2014 19:00 -6,8 C 83 % 1000,6 hPa 0,0 l/m 0,0 km/h (0 Bft) N-NO 22 -9,2 C -6,2 C 0,0 km/h (0 Bft)
28.01.2014 19:05 -6,9 C 83 % 1000,5 hPa 0,0 l/m 0,0 km/h (0 Bft) N-NO 22 -9,3 C -6,4 C 0,0 km/h (0 Bft)
28.01.2014 19:10 -6,8 C 83 % 1000,5 hPa 0,0 l/m 0,0 km/h (0 Bft) N-NO 22 -9,2 C -6,5 C 0,0 km/h (0 Bft)
28.01.2014 19:15 -6,7 C 83 % 1000,5 hPa 0,0 l/m 0,0 km/h (0 Bft) O-SO 112 -9,1 C -6,5 C 0,0 km/h (0 Bft)
28.01.2014 19:20 -6,9 C 83 % 1000,5 hPa 0,0 l/m 0,0 km/h (0 Bft) O-SO 112 -9,3 C -6,7 C 0,0 km/h (0 Bft)
28.01.2014 19:25 -7,1 C 83 % 1000,5 hPa 0,0 l/m 0,0 km/h (0 Bft) O-SO 112 -9,5 C -6,7 C 0,0 km/h (0 Bft)
28.01.2014 19:30 -6,5 C 84 % 1000,5 hPa 0,0 l/m 0,0 km/h (0 Bft) O 90 -8,7 C -7,1 C 0,0 km/h (0 Bft)
28.01.2014 19:35 -6,4 C 84 % 1000,5 hPa 0,0 l/m 0,0 km/h (0 Bft) NO 45 -8,6 C -6,9 C 0,0 km/h (0 Bft)
28.01.2014 19:40 -7,0 C 84 % 1000,5 hPa 0,0 l/m 0,0 km/h (0 Bft) NO 45 -9,2 C -6,6 C 0,0 km/h (0 Bft)
28.01.2014 19:45 -7,1 C 84 % 1000,4 hPa 0,0 l/m 0,0 km/h (0 Bft) O-SO 112 -9,3 C -6,6 C 0,0 km/h (0 Bft)
28.01.2014 19:50 -7,3 C 84 % 1000,4 hPa 0,0 l/m 0,0 km/h (0 Bft) O-SO 112 -9,5 C -6,6 C 0,0 km/h (0 Bft)
28.01.2014 19:55 -7,0 C 84 % 1000,4 hPa 0,0 l/m 0,0 km/h (0 Bft) N-NO 22 -9,2 C -6,6 C 0,0 km/h (0 Bft)
28.01.2014 20:00 -7,2 C 84 % 1000,4 hPa 0,0 l/m 0,0 km/h (0 Bft) N-NO 22 -9,4 C -6,6 C 0,0 km/h (0 Bft)
28.01.2014 20:05 -7,4 C 84 % 1000,3 hPa 0,0 l/m 0,0 km/h (0 Bft) N-NO 22 -9,6 C -6,7 C 0,0 km/h (0 Bft)
28.01.2014 20:10 -7,4 C 84 % 1000,3 hPa 0,0 l/m 0,0 km/h (0 Bft) N-NO 22 -9,6 C -6,9 C 0,0 km/h (0 Bft)
28.01.2014 20:15 -7,3 C 84 % 1000,3 hPa 0,0 l/m 0,0 km/h (0 Bft) N-NO 22 -9,5 C -7,1 C 0,0 km/h (0 Bft)
28.01.2014 20:20 -7,1 C 84 % 1000,3 hPa 0,0 l/m 0,0 km/h (0 Bft) N-NO 22 -9,3 C -7,1 C 0,0 km/h (0 Bft)
28.01.2014 20:25 -7,1 C 85 % 1000,3 hPa 0,0 l/m 0,0 km/h (0 Bft) O-SO 112 -9,2 C -6,8 C 0,0 km/h (0 Bft)
28.01.2014 20:30 -6,8 C 85 % 1000,3 hPa 0,0 l/m 0,0 km/h (0 Bft) O-SO 112 -8,9 C -6,7 C 0,0 km/h (0 Bft)
28.01.2014 20:35 -6,2 C 85 % 1000,3 hPa 0,0 l/m 0,2 km/h (0 Bft) O 90 -8,3 C -6,4 C 0,0 km/h (0 Bft)
28.01.2014 20:40 -6,5 C 85 % 1000,3 hPa 0,0 l/m 0,2 km/h (0 Bft) O 90 -8,6 C -6,1 C 0,0 km/h (0 Bft)
28.01.2014 20:45 -6,3 C 86 % 1000,2 hPa 0,0 l/m 0,2 km/h (0 Bft) N-NW 337 -8,2 C -5,9 C 0,0 km/h (0 Bft)
28.01.2014 20:50 -5,7 C 86 % 1000,2 hPa 0,0 l/m 0,2 km/h (0 Bft) N-NO 22 -7,7 C -5,5 C 0,0 km/h (0 Bft)
28.01.2014 20:55 -5,5 C 86 % 1000,2 hPa 0,0 l/m 0,0 km/h (0 Bft) N 360 -7,5 C -5,1 C 0,0 km/h (0 Bft)
28.01.2014 21:00 -4,9 C 87 % 1000,2 hPa 0,0 l/m 0,0 km/h (0 Bft) NW 315 -6,7 C -4,6 C 0,0 km/h (0 Bft)
28.01.2014 21:05 -4,9 C 87 % 1000,2 hPa 0,0 l/m 0,0 km/h (0 Bft) N-NW 337 -6,7 C -4,3 C 0,0 km/h (0 Bft)
28.01.2014 21:10 -4,6 C 87 % 1000,2 hPa 0,0 l/m 0,2 km/h (0 Bft) W-NW 292 -6,4 C -4,1 C 0,0 km/h (0 Bft)
28.01.2014 21:15 -4,4 C 88 % 1000,2 hPa 0,0 l/m 0,2 km/h (0 Bft) N-NW 337 -6,1 C -4,0 C 0,0 km/h (0 Bft)
28.01.2014 21:20 -4,0 C 88 % 1000,2 hPa 0,0 l/m 0,3 km/h (0 Bft) NW 315 -5,7 C -3,8 C 0,0 km/h (0 Bft)
28.01.2014 21:25 -3,8 C 88 % 1000,1 hPa 0,0 l/m 1,0 km/h (0 Bft) N-NW 337 -5,5 C -3,6 C 2,7 km/h (1 Bft)
28.01.2014 21:30 -3,9 C 89 % 1000,1 hPa 0,0 l/m 1,1 km/h (1 Bft) O 90 -5,4 C -3,5 C 2,3 km/h (1 Bft)
28.01.2014 21:35 -3,7 C 89 % 1000,1 hPa 0,0 l/m 1,8 km/h (1 Bft) N 360 -5,2 C -3,5 C 2,6 km/h (1 Bft)
28.01.2014 21:40 -3,7 C 89 % 1000,1 hPa 0,0 l/m 1,4 km/h (1 Bft) NW 315 -5,2 C -3,4 C 2,9 km/h (1 Bft)
28.01.2014 21:45 -3,6 C 89 % 1000,3 hPa 0,0 l/m 1,1 km/h (1 Bft) N-NW 337 -5,1 C -3,3 C 0,0 km/h (0 Bft)
28.01.2014 21:50 -3,4 C 89 % 1000,3 hPa 0,0 l/m 1,9 km/h (1 Bft) N 360 -4,9 C -3,2 C 2,6 km/h (1 Bft)
28.01.2014 21:55 -3,3 C 89 % 1000,3 hPa 0,0 l/m 1,4 km/h (1 Bft) N 360 -4,8 C -3,1 C 2,4 km/h (1 Bft)
28.01.2014 22:00 -3,3 C 89 % 1000,3 hPa 0,0 l/m 1,8 km/h (1 Bft) N-NW 337 -4,8 C -3,1 C 3,7 km/h (1 Bft)
28.01.2014 22:05 -3,2 C 90 % 1000,2 hPa 0,0 l/m 1,9 km/h (1 Bft) N-NW 337 -4,6 C -3,1 C 0,0 km/h (0 Bft)
28.01.2014 22:10 -3,2 C 90 % 1000,2 hPa 0,0 l/m 2,3 km/h (1 Bft) N-NO 22 -4,6 C -3,1 C 2,4 km/h (1 Bft)
28.01.2014 22:15 -3,2 C 90 % 1000,2 hPa 0,0 l/m 1,9 km/h (1 Bft) N-NO 22 -4,6 C -3,0 C 0,0 km/h (0 Bft)
28.01.2014 22:20 -3,2 C 90 % 1000,2 hPa 0,0 l/m 1,3 km/h (1 Bft) N 360 -4,6 C -3,0 C 2,6 km/h (1 Bft)
28.01.2014 22:25 -3,1 C 90 % 1000,2 hPa 0,0 l/m 1,3 km/h (1 Bft) N-NW 337 -4,5 C -3,0 C 3,7 km/h (1 Bft)
28.01.2014 22:30 -3,1 C 90 % 1000,2 hPa 0,0 l/m 1,4 km/h (1 Bft) N-NW 337 -4,5 C -3,0 C 1,8 km/h (1 Bft)
28.01.2014 22:35 -3,2 C 90 % 1000,2 hPa 0,0 l/m 1,8 km/h (1 Bft) N-NO 22 -4,6 C -3,0 C 0,0 km/h (0 Bft)
28.01.2014 22:40 -3,2 C 91 % 1000,2 hPa 0,0 l/m 2,4 km/h (1 Bft) N 360 -4,5 C -3,2 C 5,1 km/h (1 Bft)
28.01.2014 22:45 -3,2 C 91 % 1000,4 hPa 0,0 l/m 2,6 km/h (1 Bft) N 360 -4,5 C -3,4 C 3,2 km/h (1 Bft)
28.01.2014 22:50 -3,2 C 91 % 1000,4 hPa 0,0 l/m 3,5 km/h (1 Bft) W-NW 292 -4,5 C -4,1 C 3,9 km/h (1 Bft)
28.01.2014 22:55 -3,2 C 91 % 1000,4 hPa 0,0 l/m 2,7 km/h (1 Bft) N-NO 22 -4,5 C -3,7 C 2,3 km/h (1 Bft)
28.01.2014 23:00 -3,3 C 91 % 1000,4 hPa 0,0 l/m 2,1 km/h (1 Bft) NW 315 -4,6 C -3,1 C 4,0 km/h (1 Bft)
28.01.2014 23:05 -3,3 C 92 % 1000,4 hPa 0,0 l/m 2,4 km/h (1 Bft) W-NW 292 -4,4 C -3,4 C 3,1 km/h (1 Bft)
28.01.2014 23:10 -3,3 C 92 % 1000,4 hPa 0,0 l/m 2,7 km/h (1 Bft) W-NW 292 -4,4 C -3,8 C 2,6 km/h (1 Bft)
28.01.2014 23:15 -3,3 C 92 % 1000,4 hPa 0,0 l/m 1,9 km/h (1 Bft) N 360 -4,4 C -3,2 C 0,0 km/h (0 Bft)
28.01.2014 23:20 -3,3 C 92 % 1000,4 hPa 0,0 l/m 1,9 km/h (1 Bft) NW 315 -4,4 C -3,2 C 4,8 km/h (1 Bft)
28.01.2014 23:25 -3,3 C 92 % 1000,4 hPa 0,0 l/m 1,9 km/h (1 Bft) N-NW 337 -4,4 C -3,2 C 2,4 km/h (1 Bft)
28.01.2014 23:30 -3,3 C 92 % 1000,4 hPa 0,0 l/m 2,3 km/h (1 Bft) N-NO 22 -4,4 C -3,3 C 0,0 km/h (0 Bft)
28.01.2014 23:35 -3,3 C 92 % 1000,4 hPa 0,0 l/m 1,9 km/h (1 Bft) N-NW 337 -4,4 C -3,2 C 0,0 km/h (0 Bft)
28.01.2014 23:40 -3,3 C 92 % 1000,4 hPa 0,0 l/m 1,0 km/h (0 Bft) N-NO 22 -4,4 C -3,2 C 0,0 km/h (0 Bft)
28.01.2014 23:45 -3,3 C 92 % 1000,3 hPa 0,0 l/m 1,1 km/h (1 Bft) N 360 -4,4 C -3,2 C 0,0 km/h (0 Bft)
28.01.2014 23:50 -3,3 C 92 % 1000,3 hPa 0,0 l/m 1,0 km/h (0 Bft) N-NW 337 -4,4 C -3,2 C 2,3 km/h (1 Bft)
28.01.2014 23:55 -3,3 C 91 % 1000,3 hPa 0,0 l/m 0,6 km/h (0 Bft) N 360 -4,6 C -3,2 C 0,0 km/h (0 Bft)
_ Min-Zeit 20:10 14:30 21:40 - 21:05 - - 20:10 20:20 23:55
Minimum _ -7,4 C 62 % 1000,1 hPa - 0,0 km/h (0 Bft) - - -9,6 C -7,1 C 0,0 km/h (0 Bft)
_ Max-Zeit 12:30 23:50 11:40 23:55 13:55 - - 12:25 12:35 13:50
Maximum _ 2,7 C 92 % 1003,6 hPa 0,0 l/m 5,8 km/h
N-NO (2 Bft)
- - -1,1 C 10,7 C 9,8 km/h
N-NW (2 Bft)
Durchschnitt _ -2,9 C 85 % 1002,2 hPa #0,0 l/m 0,8 km/h (0 Bft) N-NW - -5,2 C -1,9 C 1,1 km/h (0 Bft)